CW8264 Weather Reports


time (UTC)temp
C
wind
direction
speed
KPH
gust
KPH
rain 1hr
cm
rain 24hr
cm
rain mn
cm
humidity
%
barometer
mb
20260507213405 16 248 4.8 12.9 0.00 0.00 0.00 37 983.3
20260507212906 16 225 8.0 16.1 0.00 0.00 0.00 38 983.3
20260507212405 16 112 4.8 9.7 0.00 0.00 0.00 37 983.3
20260507211405 16 188 11.3 14.5 0.00 0.00 0.00 36 983.2
20260507210905 16 176 9.7 12.9 0.00 0.00 0.00 36 983.2
20260507210405 16 167 4.8 11.3 0.00 0.00 0.00 38 983.2
20260507205905 16 232 9.7 16.1 0.00 0.00 0.00 37 983.2
20260507205405 16 179 9.7 12.9 0.00 0.00 0.00 37 983.2
20260507204905 16 137 8.0 12.9 0.00 0.00 0.00 39 983.1
20260507203905 17 267 4.8 20.9 0.00 0.00 0.00 37 983.2
20260507203405 16 194 6.4 12.9 0.00 0.00 0.00 37 983.2
20260507202905 16 115 8.0 11.3 0.00 0.00 0.00 38 983.2
20260507202406 17 213 8.0 11.3 0.00 0.00 0.00 36 983.2
20260507201905 17 112 9.7 14.5 0.00 0.00 0.00 38 983.2
20260507201405 16 158 9.7 14.5 0.00 0.00 0.00 38 983.4
20260507200905 16 199 11.3 16.1 0.00 0.00 0.00 39 983.4
20260507195905 17 180 9.7 12.9 0.00 0.00 0.00 37 983.5
20260507195405 18 232 9.7 19.3 0.00 0.00 0.00 36 983.5
20260507194905 17 186 8.0 12.9 0.00 0.00 0.00 38 983.7
20260507194406 16 164 9.7 16.1 0.00 0.00 0.00 39 983.7
20260507193905 16 247 9.7 14.5 0.00 0.00 0.00 40 983.7
20260507193406 16 167 4.8 11.3 0.00 0.00 0.00 41 983.7
20260507192905 17 233 4.8 11.3 0.00 0.00 0.00 38 983.7
20260507192405 18 222 8.0 12.9 0.00 0.00 0.00 39 983.8
20260507191404 17 158 11.3 19.3 0.00 0.00 0.00 38 983.9
20260507190906 17 230 4.8 11.3 0.00 0.00 0.00 41 983.9
20260507190405 16 144 8.0 14.5 0.00 0.00 0.00 40 984.0
20260507185405 17 239 8.0 14.5 0.00 0.00 0.00 39 984.0
20260507184904 17 310 8.0 9.7 0.00 0.00 0.00 40 984.1
20260507184405 18 270 8.0 11.3 0.00 0.00 0.00 39 984.1
20260507183905 18 211 9.7 16.1 0.00 0.00 0.00 39 984.0
20260507183405 17 244 4.8 12.9 0.00 0.00 0.00 40 984.0
20260507182905 18 202 9.7 16.1 0.00 0.00 0.00 40 984.0
20260507182405 17 252 8.0 11.3 0.00 0.00 0.00 41 984.2
20260507181905 18 245 9.7 14.5 0.00 0.00 0.00 40 984.2
20260507181405 17 190 6.4 11.3 0.00 0.00 0.00 42 984.2
20260507180904 16 217 9.7 11.3 0.00 0.00 0.00 42 984.2
20260507180404 16 118 8.0 12.9 0.00 0.00 0.00 40 984.3
20260507175405 17 270 8.0 9.7 0.00 0.00 0.00 40 984.4
20260507174904 16 164 8.0 12.9 0.00 0.00 0.00 41 984.6
20260507173905 16 216 9.7 16.1 0.00 0.00 0.00 41 984.7
20260507173405 15 195 8.0 11.3 0.00 0.00 0.00 42 984.7
20260507172905 16 225 8.0 22.5 0.00 0.00 0.00 39 984.7
20260507172404 16 171 14.5 22.5 0.00 0.00 0.00 40 984.9
20260507171905 15 130 4.8 9.7 0.00 0.00 0.00 40 984.9
20260507171405 15 258 8.0 12.9 0.00 0.00 0.00 42 984.9
20260507170905 15 188 6.4 11.3 0.00 0.00 0.00 42 984.9
20260507165904 16 202 9.7 12.9 0.00 0.00 0.00 40 985.1
20260507165404 16 79 8.0 12.9 0.00 0.00 0.00 39 985.1
20260507164904 15 210 8.0 11.3 0.00 0.00 0.00 43 985.2
20260507164404 15 191 4.8 12.9 0.00 0.00 0.00 42 985.2
20260507163904 16 159 6.4 9.7 0.00 0.00 0.00 41 985.3
20260507163405 15 137 8.0 14.5 0.00 0.00 0.00 40 985.3
20260507162904 15 258 9.7 11.3 0.00 0.00 0.00 42 985.3
20260507162404 15 165 8.0 9.7 0.00 0.00 0.00 43 985.4
20260507161905 15 101 6.4 9.7 0.00 0.00 0.00 44 985.4
20260507161404 14 158 3.2 8.0 0.00 0.00 0.00 43 985.5
20260507160905 15 301 8.0 11.3 0.00 0.00 0.00 41 985.5
20260507155904 13 149 4.8 9.7 0.00 0.00 0.00 48 985.5
20260507155404 13 193 8.0 9.7 0.00 0.00 0.00 46 985.5
20260507154405 15 230 6.4 11.3 0.00 0.00 0.00 45 985.6
20260507153905 15 215 8.0 11.3 0.00 0.00 0.00 43 985.8
20260507152405 15 90 8.0 14.5 0.00 0.00 0.00 42 985.9
20260507151904 13 250 6.4 11.3 0.00 0.00 0.00 45 985.9
20260507151404 15 143 8.0 11.3 0.00 0.00 0.00 46 986.1
20260507150905 14 199 1.6 3.2 0.00 0.00 0.00 49 986.1
20260507150404 13 202 4.8 9.7 0.00 0.00 0.00 46 986.2
20260507145904 14 137 4.8 9.7 0.00 0.03 0.00 45 986.2
20260507145405 15 315 4.8 8.0 0.00 0.03 0.00 45 986.2
20260507144904 14 200 8.0 11.3 0.00 0.05 0.00 44 986.3
20260507144404 14 270 6.4 9.7 0.00 0.05 0.00 48 986.3
20260507143904 15 252 6.4 9.7 0.00 0.05 0.00 47 986.5
20260507143404 15 135 8.0 8.0 0.00 0.08 0.00 50 986.5
20260507142405 14 176 6.4 9.7 0.00 0.08 0.00 50 986.8
20260507141903 13 215 4.8 9.7 0.00 0.08 0.00 51 986.8
20260507141404 14 237 4.8 9.7 0.00 0.10 0.00 50 986.9
20260507140404 13 159 8.0 11.3 0.00 0.10 0.00 51 987.0
20260507135905 14 309 8.0 9.7 0.00 0.10 0.00 48 987.1
20260507135404 13 193 4.8 8.0 0.00 0.10 0.00 51 987.1
20260507134907 13 189 4.8 8.0 0.00 0.10 0.00 51 987.0
20260507134408 12 165 6.4 9.7 0.00 0.10 0.00 51 987.0
20260507133913 13 207 6.4 9.7 0.00 0.15 0.00 50 987.2
20260507132908 12 62 3.2 4.8 0.00 0.15 0.00 60 987.2
20260507132407 12 191 4.8 4.8 0.00 0.15 0.00 63 987.3
20260507131907 11 157 4.8 4.8 0.00 0.15 0.00 66 987.3
20260507131407 11 183 3.2 3.2 0.00 0.15 0.00 68 987.2
20260507130907 11 292 1.6 3.2 0.00 0.15 0.00 68 987.2
20260507130408 11 207 3.2 4.8 0.00 0.15 0.00 72 987.2
20260507125908 10 172 3.2 4.8 0.00 0.15 0.00 74 987.3
20260507125407 9 135 4.8 4.8 0.00 0.15 0.00 75 987.3
20260507124907 9 168 3.2 4.8 0.00 0.15 0.00 77 987.4
20260507124406 8 132 4.8 4.8 0.00 0.15 0.00 77 987.4
20260507123908 8 145 3.2 3.2 0.00 0.15 0.00 79 987.5
20260507123407 8 162 3.2 3.2 0.00 0.15 0.00 80 987.5
20260507122907 7 154 4.8 4.8 0.00 0.18 0.00 83 987.5
20260507122408 7 170 3.2 3.2 0.00 0.18 0.00 84 987.5
20260507121907 7 157 3.2 4.8 0.00 0.18 0.00 84 987.5
20260507121407 6 184 3.2 3.2 0.00 0.20 0.00 86 987.4
20260507120908 6 200 1.6 3.2 0.00 0.20 0.00 88 987.4
20260507120407 6 187 1.6 3.2 0.00 0.25 0.00 91 987.4
20260507115907 5 233 1.6 3.2 0.00 0.25 0.00 92 987.5
20260507115406 5 269 1.6 1.6 0.00 0.25 0.00 94 987.5
20260507114907 5 45 3.2 3.2 0.00 0.25 0.00 94 987.4
20260507114407 5 226 0.0 1.6 0.00 0.25 0.00 94 987.4
20260507113907 5 201 0.0 1.6 0.00 0.28 0.00 94 987.3
20260507112908 5 265 0.0 1.6 0.00 0.28 0.00 95 987.3
20260507112407 4 213 0.0 1.6 0.00 0.28 0.00 95 987.1
20260507111408 4 226 0.0 1.6 0.00 0.28 0.00 95 987.1
20260507110907 4 204 0.0 1.6 0.00 0.28 0.00 95 987.1
20260507110407 4 181 1.6 1.6 0.00 0.30 0.00 95 987.0
20260507105407 4 270 3.2 3.2 0.00 0.30 0.00 95 987.0
20260507104406 4 302 3.2 3.2 0.00 0.36 0.00 95 987.0
20260507103907 4 290 1.6 3.2 0.00 0.38 0.00 95 986.9
20260507103407 3 292 3.2 3.2 0.00 0.41 0.00 95 986.9
20260507101907 3 270 0.0 0.0 0.00 0.51 0.00 94 986.7
20260507101406 3 229 1.6 1.6 0.00 0.58 0.00 94 986.7
20260507100906 3 270 1.6 1.6 0.00 0.64 0.00 93 986.7
20260507100406 3 259 0.0 0.0 0.00 0.71 0.00 93 986.7
20260507095907 3 250 0.0 0.0 0.00 0.79 0.00 93 986.6
20260507094906 3 270 0.0 0.0 0.00 0.86 0.00 92 986.6
20260507094406 3 266 0.0 0.0 0.00 0.86 0.00 92 986.6
20260507093908 3 270 0.0 0.0 0.00 0.86 0.00 90 986.6
20260507093406 3 225 0.0 0.0 0.00 0.89 0.00 91 986.6
20260507092907 3 202 0.0 0.0 0.00 0.91 0.00 91 986.6
20260507091914 3 260 0.0 0.0 0.00 0.99 0.00 90 986.7
20260507091417 3 273 0.0 0.0 0.00 1.02 0.00 90 986.8
20260507090917 3 209 0.0 0.0 0.00 1.07 0.00 91 986.8
20260507090416 3 236 0.0 0.0 0.00 1.07 0.00 91 986.8
20260507085906 3 231 0.0 0.0 0.00 1.07 0.00 90 986.8
20260507085414 3 270 0.0 0.0 0.00 1.07 0.00 90 986.8
20260507084907 3 270 0.0 0.0 0.00 1.07 0.00 90 986.8
20260507084407 4 249 1.6 1.6 0.00 1.07 0.00 90 986.8
20260507083906 4 225 0.0 0.0 0.00 1.07 0.00 90 986.8
20260507083406 4 248 0.0 1.6 0.00 1.07 0.00 90 986.8
20260507082906 4 270 1.6 1.6 0.00 1.07 0.00 90 986.8
20260507082407 4 265 1.6 1.6 0.00 1.07 0.00 90 986.7
20260507081906 4 282 1.6 1.6 0.00 1.07 0.00 89 986.7
20260507081406 5 270 0.0 0.0 0.00 1.07 0.00 88 986.6
20260507080906 5 225 0.0 1.6 0.00 1.07 0.00 89 986.6
20260507080407 5 273 1.6 1.6 0.00 1.07 0.00 89 986.6
20260507075907 5 270 0.0 0.0 0.00 1.07 0.00 87 986.6
20260507075407 5 283 0.0 1.6 0.00 1.07 0.00 86 986.6
20260507074406 5 255 1.6 1.6 0.00 1.07 0.00 85 986.7
20260507073907 5 270 1.6 1.6 0.00 1.07 0.00 85 986.7
20260507072414 6 240 0.0 0.0 0.00 1.07 0.00 82 986.6
20260507071906 6 225 1.6 1.6 0.00 1.07 0.00 83 986.6
20260507070906 6 284 3.2 3.2 0.00 1.07 0.00 83 986.7
20260507070407 7 279 3.2 3.2 0.00 1.07 0.00 82 986.7
20260507065907 7 273 1.6 1.6 0.00 1.07 0.00 82 986.7
20260507064907 7 290 3.2 3.2 0.00 1.07 0.00 78 986.8
20260507064416 7 309 3.2 3.2 0.00 1.07 0.00 79 986.8
20260507063405 7 274 3.2 3.2 0.00 1.07 0.00 80 986.6
20260507062916 7 292 3.2 3.2 0.00 1.07 0.00 79 986.6
20260507062406 8 264 1.6 1.6 0.00 1.07 0.00 79 986.6
20260507061906 8 286 3.2 3.2 0.00 1.09 0.00 78 986.6
20260507061406 8 303 3.2 3.2 0.00 1.12 0.00 78 987.0
20260507060906 8 302 3.2 3.2 0.00 1.12 0.00 77 987.0
20260507060416 8 292 3.2 3.2 0.00 1.12 0.00 78 987.0
20260507055914 8 292 1.6 1.6 0.00 1.12 0.00 79 987.0
20260507055409 8 270 1.6 1.6 0.00 1.12 0.00 78 987.0
20260507054906 8 238 1.6 1.6 0.00 1.12 0.00 78 987.3
20260507053907 8 292 3.2 3.2 0.00 1.12 0.00 79 987.3
20260507053407 8 274 1.6 3.2 0.00 1.14 0.00 79 987.3
20260507052907 8 270 1.6 3.2 0.00 1.14 0.00 78 987.3
20260507052406 8 258 1.6 1.6 0.00 1.14 0.00 78 987.3
20260507051917 8 270 1.6 1.6 0.00 1.17 0.00 76 987.3
20260507051407 8 270 3.2 3.2 0.00 1.17 0.00 78 987.2
20260507050905 8 270 1.6 3.2 0.00 1.17 0.00 78 987.2
20260507050406 8 270 1.6 1.6 0.00 1.17 0.00 79 987.3
20260507045906 8 270 1.6 1.6 0.00 1.17 0.00 78 987.4
20260507044908 8 275 1.6 3.2 0.00 1.17 0.00 77 987.3
20260507044412 8 292 3.2 3.2 0.00 1.17 0.00 77 987.3
20260507043917 8 291 1.6 1.6 0.00 1.17 0.00 79 987.2
20260507043406 8 270 1.6 1.6 0.00 1.17 0.00 78 987.2
20260507042906 8 292 3.2 3.2 0.00 1.17 0.00 77 987.2
20260507042413 8 292 1.6 3.2 0.00 1.17 0.00 77 987.4
20260507041906 8 311 1.6 3.2 0.00 1.17 0.00 76 987.4
20260507041406 9 295 1.6 3.2 0.00 1.17 0.00 77 987.2
20260507040906 9 270 1.6 1.6 0.00 1.17 0.00 77 987.2
20260507040407 9 270 1.6 1.6 0.00 1.17 0.00 78 987.2
20260507035905 9 292 3.2 3.2 0.00 1.17 1.17 77 987.1
20260507035406 9 270 1.6 1.6 0.00 1.17 1.17 77 987.1
20260507034406 9 234 0.0 1.6 0.00 1.17 1.17 77 987.2
20260507033916 9 270 1.6 1.6 0.00 1.17 1.17 77 987.1
20260507033406 9 262 1.6 3.2 0.00 1.17 1.17 76 987.1
20260507032905 9 292 3.2 3.2 0.00 1.17 1.17 75 987.0
20260507032406 9 292 1.6 3.2 0.00 1.17 1.17 75 986.9
20260507031906 9 312 3.2 3.2 0.00 1.17 1.17 76 986.9
20260507031405 9 265 1.6 3.2 0.00 1.17 1.17 77 986.6
20260507030906 9 283 1.6 1.6 0.00 1.17 1.17 76 986.6
20260507025916 9 292 3.2 3.2 0.00 1.17 1.17 76 986.6
20260507024906 9 270 1.6 3.2 0.00 1.17 1.17 74 986.8
20260507024406 9 283 3.2 3.2 0.00 1.17 1.17 73 986.8
20260507023917 10 270 3.2 3.2 0.00 1.17 1.17 74 986.5
20260507023406 10 282 3.2 3.2 0.00 1.17 1.17 76 986.5
20260507022908 10 292 3.2 3.2 0.00 1.17 1.17 75 986.5
20260507022405 10 292 3.2 3.2 0.00 1.17 1.17 73 986.6
20260507021915 10 246 3.2 3.2 0.00 1.17 1.17 75 986.6
20260507021405 10 281 1.6 3.2 0.00 1.17 1.17 75 986.4
20260507020916 10 295 3.2 3.2 0.00 1.17 1.17 73 986.4
20260507020406 10 292 3.2 3.2 0.00 1.17 1.17 75 986.2
20260507015405 10 292 3.2 3.2 0.00 1.17 1.17 76 986.2
20260507014905 10 288 1.6 3.2 0.00 1.17 1.17 76 986.0
20260507014416 10 315 3.2 3.2 0.00 1.17 1.17 75 986.0
20260507013916 10 292 3.2 3.2 0.00 1.17 1.17 76 985.8
20260507013405 10 292 3.2 3.2 0.00 1.17 1.17 75 985.8
20260507012909 10 286 3.2 3.2 0.00 1.17 1.17 77 985.8
20260507012417 10 270 3.2 3.2 0.00 1.17 1.17 76 985.6
20260507011909 10 292 3.2 3.2 0.00 1.17 1.17 79 985.6
20260507011406 10 280 1.6 4.8 0.00 1.17 1.17 77 985.9
20260507010906 10 250 3.2 3.2 0.00 1.17 1.17 80 985.9
20260507010406 11 262 1.6 1.6 0.00 1.17 1.17 79 985.9
20260507005905 11 292 3.2 3.2 0.00 1.17 1.17 81 985.9
20260507003916 11 276 1.6 3.2 0.00 1.17 1.17 83 985.9
20260507002406 11 305 3.2 3.2 0.00 1.17 1.17 80 986.1
20260507001916 11 272 3.2 3.2 0.00 1.17 1.17 81 986.1
20260507001416 11 257 1.6 3.2 0.00 1.17 1.17 80 985.9
20260507000915 11 282 1.6 1.6 0.00 1.17 1.17 80 985.9
20260507000415 11 270 1.6 1.6 0.00 1.17 1.17 79 985.8
20260506235905 11 280 3.2 3.2 0.00 1.17 1.17 77 985.8
20260506234905 11 301 3.2 3.2 0.00 1.17 1.17 78 985.6
20260506234406 11 281 3.2 3.2 0.00 1.17 1.17 78 985.6
20260506233908 11 315 3.2 3.2 0.00 1.17 1.17 76 985.7
20260506233407 12 312 3.2 3.2 0.00 1.17 1.17 77 985.7
20260506232906 12 292 3.2 3.2 0.00 1.17 1.17 75 985.7
20260506232409 12 315 3.2 3.2 0.00 1.17 1.17 78 985.5
20260506231905 12 270 1.6 3.2 0.00 1.17 1.17 75 985.5
20260506231415 12 292 3.2 3.2 0.00 1.17 1.17 77 985.3
20260506230906 12 208 1.6 3.2 0.00 1.17 1.17 74 985.3
20260506230415 12 270 3.2 3.2 0.00 1.17 1.17 74 985.2
20260506225915 13 279 1.6 3.2 0.00 1.17 1.17 75 985.1
20260506225413 13 292 1.6 3.2 0.00 1.17 1.17 74 985.1
20260506224905 13 285 3.2 3.2 0.00 1.17 1.17 74 985.2
20260506224415 13 238 1.6 3.2 0.00 1.17 1.17 71 985.2
20260506223915 13 281 3.2 3.2 0.00 1.17 1.17 71 985.0
20260506222905 13 202 4.8 8.0 0.00 1.17 1.17 64 985.0
20260506222412 13 127 4.8 8.0 0.00 1.17 1.17 65 985.0
20260506221908 13 159 3.2 8.0 0.00 1.17 1.17 68 985.0
20260506221413 13 180 3.2 4.8 0.00 1.17 1.17 69 985.0
20260506220915 13 178 3.2 3.2 0.00 1.17 1.17 67 985.0
20260506220405 13 180 3.2 4.8 0.00 1.17 1.17 68 984.8
20260506215418 13 186 1.6 3.2 0.00 1.17 1.17 74 984.8
20260506214916 13 202 1.6 3.2 0.00 1.17 1.17 72 984.8
20260506214405 13 202 1.6 4.8 0.00 1.17 1.17 72 984.8
20260506213906 13 168 1.6 4.8 0.00 1.17 1.17 74 984.5